Total_Precipitation_Accumulation
1.66 1.62 1.52 1.53 1.62 1.65 1.73 1.78 1.70 1.54 1.46 1.31 0.97 0.75 0.75 0.77 0.83 0.69 0.61 0.53 0.50 0.47 0.38 0.38 0.41 0.49 0.58 0.68 0.83 0.97 1.01 1.03 1.05 1.01 1.04 1.14 1.18 1.21
1.44 1.46 1.43 1.45 1.55 1.58 1.64 1.76 1.83 1.82 1.63 1.44 1.25 0.95 0.90 0.81 0.83 0.76 0.69 0.58 0.48 0.42 0.35 0.33 0.34 0.39 0.48 0.56 0.64 0.76 0.83 0.84 0.87 0.92 0.94 0.94 0.95 0.99
1.13 1.16 1.22 1.31 1.44 1.51 1.54 1.60 1.79 1.94 1.81 1.71 1.57 1.42 1.23 1.05 0.86 0.80 0.72 0.62 0.51 0.43 0.35 0.32 0.33 0.35 0.39 0.48 0.56 0.64 0.71 0.76 0.79 0.83 0.89 0.92 0.93 0.93
1.01 1.10 1.16 1.29 1.37 1.36 1.46 1.54 1.73 1.94 2.00 2.12 2.16 1.89 1.56 1.29 1.14 0.95 0.70 0.55 0.52 0.43 0.36 0.33 0.32 0.33 0.34 0.39 0.46 0.58 0.68 0.72 0.76 0.81 0.84 0.86 0.90 0.94
1.02 1.11 1.10 1.14 1.21 1.23 1.35 1.49 1.64 1.79 1.95 2.05 2.18 1.98 1.76 1.45 1.38 1.15 0.90 0.76 0.53 0.45 0.37 0.33 0.33 0.34 0.34 0.39 0.44 0.51 0.60 0.69 0.73 0.82 0.90 0.90 0.93 0.98
0.96 0.96 0.93 0.94 1.01 1.08 1.15 1.31 1.46 1.60 1.72 1.77 1.91 1.97 1.96 1.88 1.75 1.48 1.27 1.04 0.79 0.57 0.50 0.36 0.34 0.33 0.34 0.36 0.40 0.47 0.58 0.69 0.74 0.80 0.87 0.94 0.99 1.03
0.90 0.82 0.71 0.72 0.77 0.80 0.86 1.07 1.22 1.35 1.51 1.61 1.75 1.91 2.00 2.06 1.89 1.73 1.57 1.39 1.11 0.93 0.92 0.71 0.57 0.46 0.40 0.39 0.40 0.43 0.50 0.64 0.73 0.82 0.89 0.92 0.99 1.09
0.76 0.76 0.69 0.60 0.57 0.59 0.62 0.73 0.88 1.02 1.24 1.47 1.65 1.86 1.93 1.87 1.95 1.89 1.78 1.64 1.49 1.28 1.19 1.21 1.12 0.97 0.77 0.56 0.52 0.46 0.41 0.50 0.65 0.76 0.88 0.97 1.02 1.08
0.62 0.66 0.60 0.54 0.50 0.46 0.52 0.61 0.66 0.72 0.83 1.12 1.38 1.50 1.49 1.45 1.64 1.82 1.75 1.64 1.63 1.51 1.41 1.48 1.41 1.26 0.98 0.81 0.68 0.54 0.46 0.43 0.51 0.62 0.70 0.83 0.95 1.04
0.54 0.57 0.58 0.59 0.53 0.51 0.50 0.55 0.54 0.53 0.55 0.65 0.78 0.90 1.04 1.14 1.32 1.61 1.81 1.72 1.71 1.63 1.53 1.67 1.61 1.48 1.22 0.96 0.78 0.58 0.50 0.50 0.53 0.58 0.63 0.69 0.77 0.88
0.50 0.52 0.54 0.57 0.56 0.48 0.46 0.49 0.51 0.52 0.48 0.51 0.55 0.66 0.79 0.90 1.03 1.22 1.45 1.67 1.91 1.88 1.61 1.66 1.64 1.63 1.64 1.33 1.00 0.79 0.61 0.54 0.52 0.53 0.56 0.59 0.62 0.69
0.61 0.60 0.50 0.47 0.47 0.37 0.37 0.42 0.42 0.43 0.40 0.45 0.50 0.53 0.58 0.69 0.77 0.90 1.01 1.21 1.46 1.62 1.54 1.56 1.69 1.87 2.03 1.74 1.27 0.92 0.76 0.72 0.63 0.53 0.51 0.53 0.54 0.50
0.65 0.64 0.59 0.45 0.36 0.32 0.30 0.35 0.38 0.36 0.39 0.44 0.51 0.55 0.55 0.60 0.64 0.70 0.81 0.86 0.92 0.95 0.97 1.16 1.34 1.56 1.85 1.91 1.73 1.38 1.09 0.89 0.74 0.66 0.61 0.60 0.60 0.58
0.73 0.69 0.58 0.45 0.37 0.34 0.29 0.30 0.30 0.29 0.34 0.41 0.47 0.50 0.51 0.53 0.60 0.65 0.71 0.77 0.83 0.79 0.76 0.85 0.99 1.17 1.28 1.37 1.46 1.53 1.51 1.35 1.12 0.93 0.80 0.80 0.76 0.78
0.63 0.69 0.62 0.43 0.37 0.38 0.37 0.31 0.26 0.26 0.32 0.35 0.39 0.45 0.43 0.45 0.55 0.67 0.76 0.77 0.78 0.76 0.67 0.67 0.76 0.86 0.92 1.03 1.13 1.20 1.28 1.33 1.28 1.21 1.16 1.06 0.93 0.88
0.54 0.57 0.61 0.54 0.43 0.44 0.46 0.38 0.30 0.32 0.34 0.33 0.36 0.42 0.44 0.46 0.53 0.60 0.68 0.74 0.78 0.76 0.69 0.64 0.68 0.71 0.74 0.79 0.83 0.91 1.00 1.13 1.25 1.31 1.31 1.29 1.19 1.12
0.59 0.65 0.66 0.68 0.60 0.55 0.56 0.50 0.43 0.43 0.40 0.39 0.38 0.42 0.48 0.49 0.51 0.56 0.59 0.62 0.66 0.69 0.64 0.60 0.59 0.63 0.61 0.58 0.66 0.72 0.76 0.83 0.98 1.15 1.28 1.37 1.27 1.19
0.60 0.70 0.77 0.78 0.73 0.70 0.67 0.63 0.61 0.55 0.49 0.46 0.44 0.42 0.45 0.48 0.48 0.52 0.55 0.55 0.54 0.55 0.56 0.51 0.49 0.54 0.61 0.57 0.47 0.48 0.54 0.62 0.68 0.77 0.94 1.14 1.17 1.10
0.63 0.72 0.80 0.82 0.80 0.81 0.74 0.68 0.69 0.62 0.57 0.55 0.51 0.49 0.49 0.49 0.48 0.48 0.52 0.55 0.54 0.51 0.49 0.46 0.41 0.42 0.48 0.53 0.44 0.31 0.36 0.45 0.48 0.52 0.61 0.77 0.94 0.91
0.68 0.76 0.83 0.81 0.82 0.84 0.79 0.74 0.73 0.66 0.60 0.57 0.53 0.51 0.50 0.52 0.51 0.47 0.46 0.49 0.50 0.49 0.52 0.50 0.41 0.34 0.35 0.40 0.40 0.34 0.24 0.31 0.40 0.45 0.46 0.51 0.57 0.64
0.70 0.75 0.77 0.77 0.80 0.78 0.73 0.70 0.71 0.65 0.58 0.53 0.49 0.49 0.49 0.53 0.54 0.50 0.48 0.51 0.50 0.47 0.46 0.49 0.44 0.39 0.39 0.46 0.50 0.48 0.36 0.27 0.30 0.35 0.38 0.42 0.47 0.48
0.65 0.67 0.67 0.67 0.68 0.67 0.64 0.64 0.68 0.65 0.59 0.54 0.49 0.47 0.48 0.51 0.53 0.50 0.46 0.46 0.47 0.46 0.46 0.47 0.47 0.48 0.45 0.44 0.45 0.45 0.44 0.40 0.33 0.31 0.32 0.33 0.33 0.37
0.59 0.63 0.63 0.61 0.58 0.58 0.57 0.56 0.61 0.60 0.53 0.47 0.45 0.44 0.45 0.50 0.50 0.46 0.43 0.41 0.43 0.47 0.49 0.50 0.50 0.50 0.52 0.53 0.53 0.50 0.45 0.43 0.42 0.40 0.32 0.26 0.23 0.20